Location: Blekte
(50.9667°N, 4.0333°E)
Time: 00:30:36
(UTC+00:00)

Daily predictions for brighter satellites

Satellite Brightness Start Highest point End
(mag) Time Altitude Azimuth Time Altitude Azimuth Time Altitude Azimuth
Cosmos 1943 Rocket 4.4 03:09:37 19° NNE 03:09:45 19° NNE 03:13:40 10° ENE
Cosmos 2219 Rocket 3.7 03:41:53 29° NNE 03:41:53 29° NNE 03:44:31 10° NNE
Cosmos 2237 Rocket 3.4 03:43:06 36° ESE 03:43:11 37° ESE 03:48:21 10° NE
BREEZE-M DEB (TANK) 4.2 03:55:50 70° SSW 03:55:54 70° SSW 04:00:45 10° ESE
Cosmos 2333 Rocket 3.4 04:04:35 33° NNE 04:04:35 33° NNE 04:07:45 10° NNE
Lacrosse 4 Rocket 3.6 04:04:26 23° ESE 04:04:39 23° ESE 04:08:06 10° ENE
FENGYUN 3A 4.1 03:59:57 10° NNE 04:04:53 58° E 04:04:53 58° E
Cosmos 2360 Rocket 3.9 04:15:25 21° N 04:15:25 21° N 04:17:45 10° NNE
Cosmos 1464 Rocket 4.1 04:13:47 37° S 04:16:20 72° E 04:22:31 10° NNE
SL-16 R/B 4.3 04:18:48 15° N 04:18:48 15° N 04:20:37 10° NNE
Cosmos 841 Rocket 3.9 04:16:53 59° E 04:16:53 59° E 04:21:49 10° NNE
Cosmos 1980 3.9 04:17:06 66° SE 04:17:24 67° ESE 04:23:01 10° NE
Cosmos 2322 Rocket 4.2 04:20:13 16° N 04:20:13 16° N 04:22:04 10° NNE
Meteor 1-21 Rocket 4.3 04:17:53 60° N 04:18:56 77° ENE 04:24:48 10° SSE
COSMOS 2428 3.4 04:25:09 42° N 04:25:09 42° N 04:29:11 10° NNE
Cosmos 1072 Rocket 4.4 04:22:08 48° S 04:24:03 86° E 04:30:27 10° N
SKYMED 2 4.5 04:20:26 10° SE 04:23:56 46° ESE 04:23:56 46° ESE
ATLAS CENTAUR R/B 2.9 04:31:44 30° ESE 04:31:44 30° ESE 04:34:33 10° ENE
METEOR-M 4.2 04:27:07 10° NNE 04:32:30 76° ESE 04:34:34 39° S
Cosmos 2150 Rocket 4.3 04:33:50 41° N 04:35:37 67° ENE 04:41:01 10° SE
Cosmos 2084 Rocket 4.4 04:37:18 43° SE 04:37:18 43° SE 04:40:24 10° SE
Cosmos 1092 Rocket 4.4 04:30:49 10° N 04:36:55 59° ENE 04:43:00 10° SSE
ALOS 3.4 04:35:13 10° N 04:37:53 34° N 04:37:53 34° N
NOSS 3-3 (A) 4.5 04:37:23 39° NW 04:40:39 85° NE 04:48:58 10° SE
NOSS 3-3 (C) 4.5 04:37:28 38° NW 04:40:45 84° NE 04:49:04 10° SE
Cosmos 1602 Rocket 3.9 04:40:25 51° NNE 04:41:21 66° ENE 04:45:48 10° SSE
USA 215 3.3 04:35:26 10° ENE 04:41:52 63° NNW 04:43:15 52° WNW
ADEOS 3.6 04:37:39 10° NNE 04:42:54 76° ESE 04:47:40 13° S
Cosmos 1908 4.3 04:45:31 39° NE 04:45:31 39° NE 04:48:07 10° NNE
GEOS 3 Rocket 4.1 04:39:31 10° ESE 04:44:49 60° NE 04:46:53 36° NNW
USA 307 4.0 04:44:42 36° SSE 04:45:08 37° SE 04:49:03 10° ENE
Cosmos 1328 4.2 04:46:59 58° ESE 04:46:59 58° ESE 04:50:28 10° SSE
NOSS 0 Rocket 3.8 04:45:40 59° WSW 04:46:46 73° WNW 04:52:59 10° NNE
Nadezhda 4 Rocket 3.8 04:41:19 10° NNW 04:47:28 78° W 04:53:34 10° S
CZ-2C R/B 4.1 04:42:42 10° N 04:44:42 22° NNW 04:44:42 22° NNW
USA 305 3.8 04:50:49 39° SSE 04:51:23 42° SE 04:55:24 10° ENE
USA 308 3.8 04:53:18 38° S 04:54:05 42° SE 04:58:09 10° ENE
Cosmos 1943 Rocket 2.6 04:51:10 24° NNW 04:54:40 63° ENE 05:00:18 10° SE
Cosmos 1400 Rocket 3.1 04:53:20 30° S 04:55:13 69° E 04:59:21 10° NNE
SL-4 R/B 2.6 04:55:30 45° SSE 04:55:32 45° SSE 04:59:23 10° E
Cosmos 2034 Rocket 3.9 04:51:34 10° SSW 04:57:57 83° WNW 05:04:20 10° N
Meteor 1-16 Rocket 4.3 04:52:56 10° S 04:58:52 88° ESE 05:04:51 10° NNE
Cosmos 1570 Rocket 3.8 04:57:36 46° SW 04:59:11 79° WNW 05:04:29 10° NNE
SJ-12 3.9 04:57:02 10° NNE 05:01:12 81° ESE 05:04:12 18° S
Cosmos 540 Rocket 3.4 05:01:39 58° WNW 05:01:57 59° WNW 05:07:04 10° NNE
Cosmos 2298 Rocket 3.9 05:00:28 41° NW 05:02:23 75° WSW 05:07:42 10° SSE
CZ-2C R/B 4.1 04:58:06 10° SE 05:02:51 35° ENE 05:07:45 10° N
USA 306 3.6 05:02:36 40° S 05:03:36 49° SSE 05:07:42 10° ENE
Cosmos 2369 Rocket 3.0 05:00:31 15° NNW 05:05:00 48° NE 05:10:25 10° SE
Cosmos 1125 Rocket 3.5 05:01:52 24° NNW 05:05:09 84° ENE 05:10:29 10° SSE
Envisat 4.4 05:00:29 10° NNE 05:05:15 38° E 05:09:59 10° SSE
NOSS 3-2 (A) 3.9 05:00:28 12° SSW 05:05:39 58° SE 05:12:06 10° NE
Cosmos 1814 Rocket 3.8 05:03:50 38° SW 05:05:51 77° WNW 05:11:01 10° NNE
CZ-4B R/B 3.0 05:06:40 10° NNE 05:10:17 64° ESE 05:14:02 10° S
Cosmos 1461 4.0 05:11:23 34° NNW 05:11:23 34° NNW 05:15:31 10° NNE
CZ-4B R/B 4.0 05:07:39 10° N 05:12:07 65° WNW 05:13:34 40° SW
COSMO-SKYMED 1 2.6 05:08:27 10° S 05:12:34 55° WSW 05:12:34 55° WSW
Cosmos 2278 Rocket 4.3 05:18:36 11° SSW 05:18:36 11° SSW 05:18:48 10° SSW
PSLV R/B 3.9 05:10:38 10° SSE 05:14:46 89° ENE 05:17:58 17° NNW
Cosmos 2228 4.1 05:14:22 10° SSE 05:18:23 45° E 05:22:27 10° NNE
SL-16 R/B 2.5 05:13:20 10° SSW 05:18:57 70° ESE 05:24:37 10° NNE
NOSS 3-2 (C) 4.4 05:14:01 10° SSW 05:19:24 46° ESE 05:25:34 10° NE
Cosmos 1953 Rocket 4.5 05:17:57 10° N 05:22:11 48° ENE 05:26:23 10° SSE
Cosmos 2026 Rocket 4.0 05:16:48 10° N 05:23:13 86° W 05:29:36 10° S
Cosmos 972 Rocket 4.3 05:17:17 10° SSW 05:23:29 82° ESE 05:29:02 10° NNE
Cosmos 2219 Rocket 3.4 05:23:37 24° NW 05:23:37 24° NW 05:28:06 10° NNE
ATLAS 5 CENTAUR R/B 4.1 05:25:47 11° SSW 05:25:47 11° SSW 05:26:16 10° SSW
ERS-2 2.2 05:21:49 10° S 05:25:10 52° WSW 05:25:10 52° WSW
CENTAUR R/B 3.2 05:20:49 10° SSW 05:26:36 55° ESE 05:33:30 10° NE
Cosmos 2237 Rocket 2.4 05:24:59 32° WSW 05:27:08 48° NW 05:32:41 10° NNE
Cosmos 2208 Rocket 4.1 05:23:25 20° SW 05:27:12 60° WNW 05:32:34 10° NNE
H-2A R/B 2.7 05:23:33 10° NNE 05:27:17 79° E 05:31:02 10° S
Cosmos 1953 4.1 05:32:23 18° NNW 05:32:23 18° NNW 05:33:41 10° N
Meteor PRIRODA 3.4 05:28:19 10° N 05:31:58 77° WNW 05:35:35 10° SSW
Cosmos 1606 Rocket 4.1 05:30:34 10° S 05:34:48 59° E 05:39:06 10° NNE
Lacrosse 4 Rocket 1.6 05:40:48 26° WSW 05:43:01 54° NW 05:47:21 10° NNE
Meteor 1-11 4.2 05:38:34 10° NNW 05:44:01 56° W 05:49:29 10° S
Cosmos 1300 2.5 05:42:53 10° SSW 05:46:41 81° W 05:50:32 10° N
Cosmos 2333 Rocket 3.7 05:46:36 18° NW 05:47:36 18° NNW 05:51:29 10° NNE
SAR-Lupe-4 4.0 05:45:41 10° SSW 05:49:02 37° W 05:50:19 28° NW
deb Chang Zheng 4 3.7 05:45:35 10° N 05:49:40 47° WNW 05:53:43 10° SW
Cosmos 1315 Rocket 2.7 05:47:20 10° SSW 05:51:15 86° WNW 05:55:12 10° NNE
Cosmos 1655 Rocket 4.4 05:45:43 10° N 05:51:58 67° ENE 05:58:14 10° SSE
Meteor 1-31 Rocket 3.9 05:49:45 10° N 05:52:39 24° NW 05:52:39 24° NW
Cosmos 2297 4.3 05:50:12 19° NW 05:53:44 37° WSW 05:58:56 10° S
Cosmos 1346 Rocket 3.3 05:54:23 16° NNW 05:57:08 37° W 06:00:49 10° SSW
MOS 1 Rocket 4.0 05:54:16 10° SSW 05:58:30 30° W 06:02:31 10° NNW
Cosmos 2360 Rocket 4.2 05:57:10 10° NW 05:58:52 12° NNW 06:00:49 10° N
Cosmos 841 Rocket 4.4 05:57:01 21° W 05:59:00 27° NW 06:03:22 10° N
NOSS 5 (C) 4.5 05:57:05 12° SW 06:00:50 65° NW 06:04:04 10° NE
USA 238 DEB 3.6 05:54:43 10° SW 06:01:21 85° NW 06:08:22 10° NE
USA 238 3.6 05:54:49 10° SW 06:01:27 85° NW 06:08:28 10° NE
Cosmos 836 Rocket 4.4 05:56:20 10° SSW 06:01:36 83° WNW 06:06:52 10° NNE
Cosmos 1758 Rocket 4.1 05:57:50 10° NNW 06:01:59 37° W 06:06:04 10° SSW
FALCON 9 DEB 3.3 06:01:26 25° WNW 06:03:10 59° N 06:06:33 10° E
Cosmos 1689 Rocket 3.5 06:05:32 10° SSW 06:07:24 20° WSW 06:07:24 20° WSW
Cosmos 1441 Rocket 3.7 06:04:47 10° N 06:08:44 64° ENE 06:12:37 10° SSE
COSMOS 2428 4.2 06:07:11 15° NW 06:09:09 17° NNW 06:12:54 10° N
ATLAS CENTAUR R/B 1.7 06:07:56 19° W 06:10:04 35° NW 06:13:30 10° NNE
SL-19 R/B 4.2 06:09:52 10° NNE 06:13:42 76° ESE 06:17:00 10° SSW
BREEZE M DEB (TANK) 3.5 06:12:20 10° SW 06:14:39 37° SSE 06:19:36 10° E
ALOS 4.0 06:14:25 10° NNW 06:16:24 13° NW 06:16:24 13° NW
MOS 1-B 4.4 06:10:45 10° NNE 06:16:35 85° ESE 06:22:22 10° SSW
Cosmos 1980 Rocket 4.5 06:15:16 10° N 06:17:09 11° NNE 06:19:02 10° NE
YAOGAN 6 3.0 06:14:00 10° N 06:17:32 42° WNW 06:21:02 10° SW
Cosmos 1892 2.6 06:13:49 10° NNW 06:17:39 70° W 06:21:29 10° S
Cosmos 1184 Rocket 3.6 06:14:58 10° N 06:18:09 51° ENE 06:21:22 10° SSE
Spot 2 3.8 06:14:16 10° NNE 06:18:19 83° WNW 06:22:25 10° SSW
Cosmos 1726 Rocket 3.5 06:14:48 10° SSW 06:19:05 64° WNW 06:23:24 10° N
Cosmos 2058 Rocket 3.1 06:16:39 10° S 06:21:04 86° E 06:25:33 10° N
Cosmos 1603 4.3 06:16:38 10° SSW 06:22:09 61° ESE 06:27:44 10° NE
FALCON 9 DEB 3.4 06:19:39 10° SW 06:22:42 59° SSE 06:25:46 10° ENE
GEOS 3 Rocket 4.3 06:18:04 10° S 06:23:02 38° WSW 06:27:59 10° NW
USA 215 3.6 06:18:09 10° ENE 06:24:28 53° N 06:30:36 11° WNW
USA 307 2.9 06:20:53 11° WSW 06:24:59 75° NNW 06:29:13 10° ENE
CZ-4B DEB 4.2 06:22:03 10° NNE 06:27:37 70° WNW 06:33:08 10° SSW
In-Cosmos 22 Rocket 4.2 06:22:38 10° NNW 06:27:59 56° W 06:33:11 10° S
PSLV R/B 4.2 06:24:31 10° N 06:28:21 44° WNW 06:32:12 10° SW
Cosmos 2292 Rocket 3.3 06:27:02 10° NNW 06:29:50 36° W 06:32:57 10° SSW
USA 305 2.9 06:27:02 10° W 06:31:16 71° NNW 06:35:31 10° ENE
Cosmos 2279 Rocket 4.1 06:25:07 10° SSW 06:31:16 59° WNW 06:37:29 10° N
Cosmos 1408 2.5 06:27:48 10° NNW 06:31:24 66° W 06:34:58 10° S
FALCON 9 DEB 3.4 06:28:21 10° SW 06:31:28 61° SSE 06:34:34 10° ENE
Cosmos 1400 Rocket 4.5 06:29:42 10° W 06:32:11 15° WNW 06:34:42 10° NNW
Cosmos 2098 Rocket 4.3 06:28:38 10° NNW 06:33:28 28° W 06:37:28 10° SW
Okean O Rocket 1.7 06:29:16 10° NNE 06:33:41 84° ESE 06:38:01 10° SSW
USA 308 2.9 06:29:43 10° W 06:34:00 71° NNW 06:38:17 10° ENE
SL-4 R/B 1.9 06:31:08 10° W 06:35:01 84° N 06:39:15 10° E
SMAP 3.0 06:31:05 10° N 06:35:44 71° WNW 06:40:23 10° SSW
Cosmos 2263 4.4 06:31:58 10° NW 06:37:30 56° WSW 06:43:03 10° S
Cosmos 1943 Rocket 3.2 06:33:22 10° NW 06:38:01 26° WSW 06:42:38 10° SSW
H-2A R/B 2.7 06:35:28 10° N 06:39:56 63° WNW 06:44:23 10° SSW
Iridium 4 Rocket 4.1 06:36:01 10° S 06:41:51 78° E 06:47:47 10° N
Cosmos 1939 Rocket 3.0 06:38:43 10° NNE 06:42:39 75° ESE 06:46:30 10° S
CZ-2C R/B 3.0 06:38:05 10° SSW 06:43:05 42° W 06:48:13 10° NNW
USA 306 3.0 06:39:20 10° W 06:43:34 66° NNW 06:47:48 10° ENE
Envisat 3.6 06:39:38 10° N 06:44:15 36° WNW 06:48:51 10° SW
CZ-4B R/B 4.4 06:43:02 10° NNW 06:45:00 14° WNW 06:46:59 10° W
Cosmos 2369 Rocket 2.9 06:43:52 10° NW 06:48:54 35° WSW 06:53:54 10° S
Cosmos 1076 Rocket 3.6 06:45:09 10° N 06:49:27 86° E 06:53:41 10° S
Cosmos 773 Rocket 4.1 06:44:54 10° SSW 06:50:09 89° ESE 06:55:24 10° NNE
Cosmos 1633 4.3 06:51:18 10° N 06:54:33 32° ENE 06:57:46 10° SE
Meteor 2-10 Rocket 3.8 06:49:44 10° SSW 06:55:31 64° WNW 07:01:13 10° N
NOSS 3-2 (A) 3.9 06:51:01 10° WSW 06:56:46 46° NNW 07:03:27 10° NE
